Time,TemperatureF,DewpointF,PressureIn,WindDirection,WindDirectionDegrees,WindSpeedMPH,WindSpeedGustMPH,Humidity,HourlyPrecipIn,Conditions,Clouds,dailyrainin,SoftwareType,DateUTC
2013-02-28 00:02:00,31.3,30.0,29.78,NW,323,3.0,11.0,96,0.00,,,0.00,weatherlink.com 1.10,2013-02-28 06:02:00,
2013-02-28 00:17:00,31.2,30.0,29.78,NW,306,5.0,11.0,96,0.00,,,0.00,weatherlink.com 1.10,2013-02-28 06:17:00,
2013-02-28 00:32:00,31.2,30.0,29.78,NNW,334,7.0,10.0,96,0.00,,,0.00,weatherlink.com 1.10,2013-02-28 06:32:00,
2013-02-28 00:47:00,31.2,30.0,29.78,NW,307,10.0,10.0,96,0.00,,,0.00,weatherlink.com 1.10,2013-02-28 06:47:00,
2013-02-28 01:02:00,31.2,30.0,29.78,NW,311,7.0,10.0,96,0.00,,,0.00,weatherlink.com 1.10,2013-02-28 07:02:00,
2013-02-28 01:17:00,31.2,30.0,29.79,West,279,9.0,14.0,96,0.00,,,0.00,weatherlink.com 1.10,2013-02-28 07:17:00,
2013-02-28 01:32:00,31.2,30.0,29.79,NW,321,8.0,10.0,96,0.00,,,0.00,weatherlink.com 1.10,2013-02-28 07:32:00,
2013-02-28 01:47:00,31.3,30.0,29.79,NW,316,4.0,11.0,96,0.00,,,0.00,weatherlink.com 1.10,2013-02-28 07:47:00,
2013-02-28 02:02:00,31.3,30.0,29.79,NNW,331,7.0,11.0,96,0.00,,,0.00,weatherlink.com 1.10,2013-02-28 08:02:00,
2013-02-28 02:17:00,31.3,30.0,29.79,NW,321,3.0,11.0,96,0.00,,,0.00,weatherlink.com 1.10,2013-02-28 08:17:00,
2013-02-28 02:32:00,31.4,30.0,29.80,NW,323,6.0,10.0,95,0.00,,,0.00,weatherlink.com 1.10,2013-02-28 08:32:00,
2013-02-28 02:47:00,31.5,30.0,29.80,NW,306,8.0,10.0,95,0.00,,,0.00,weatherlink.com 1.10,2013-02-28 08:47:00,
2013-02-28 03:02:00,31.6,30.0,29.80,NW,313,3.0,10.0,95,0.00,,,0.00,weatherlink.com 1.10,2013-02-28 09:02:00,
2013-02-28 03:17:00,31.6,30.0,29.81,NNW,348,2.0,10.0,94,0.00,,,0.00,weatherlink.com 1.10,2013-02-28 09:17:00,
2013-02-28 03:32:00,31.6,30.0,29.81,NNW,332,10.0,10.0,94,0.00,,,0.00,weatherlink.com 1.10,2013-02-28 09:32:00,
2013-02-28 03:47:00,31.6,30.0,29.82,NW,307,7.0,10.0,94,0.00,,,0.00,weatherlink.com 1.10,2013-02-28 09:47:00,
2013-02-28 04:02:00,31.5,30.0,29.82,North,350,7.0,10.0,94,0.00,,,0.00,weatherlink.com 1.10,2013-02-28 10:02:00,
2013-02-28 04:17:00,31.5,30.0,29.83,NNW,333,0.0,10.0,94,0.00,,,0.00,weatherlink.com 1.10,2013-02-28 10:17:00,
2013-02-28 04:32:00,31.5,30.0,29.83,NNW,331,6.0,10.0,94,0.00,,,0.00,weatherlink.com 1.10,2013-02-28 10:32:00,
2013-02-28 04:47:00,31.4,30.0,29.84,NW,321,5.0,10.0,94,0.00,,,0.00,weatherlink.com 1.10,2013-02-28 10:47:00,
2013-02-28 05:02:00,31.4,30.0,29.84,NW,313,7.0,10.0,94,0.00,,,0.00,weatherlink.com 1.10,2013-02-28 11:02:00,
2013-02-28 05:17:00,31.5,30.0,29.84,NNW,331,3.0,9.0,94,0.00,,,0.00,weatherlink.com 1.10,2013-02-28 11:17:00,
2013-02-28 05:32:00,31.6,30.0,29.85,NW,319,6.0,10.0,94,0.00,,,0.00,weatherlink.com 1.10,2013-02-28 11:32:00,
2013-02-28 05:47:00,31.6,30.0,29.85,NNW,346,3.0,10.0,94,0.00,,,0.00,weatherlink.com 1.10,2013-02-28 11:47:00,
2013-02-28 06:02:00,31.5,30.0,29.86,NNW,327,3.0,10.0,94,0.00,,,0.00,weatherlink.com 1.10,2013-02-28 12:02:00,
2013-02-28 06:17:00,31.6,30.0,29.87,NW,314,6.0,10.0,94,0.00,,,0.00,weatherlink.com 1.10,2013-02-28 12:17:00,
2013-02-28 06:32:00,31.7,30.0,29.87,WNW,296,7.0,11.0,94,0.00,,,0.00,weatherlink.com 1.10,2013-02-28 12:32:00,
2013-02-28 06:47:00,31.8,30.0,29.88,NW,321,3.0,9.0,94,0.00,,,0.00,weatherlink.com 1.10,2013-02-28 12:47:00,
2013-02-28 07:02:00,31.7,30.0,29.88,NNW,333,7.0,10.0,94,0.00,,,0.00,weatherlink.com 1.10,2013-02-28 13:02:00,
2013-02-28 07:18:00,31.8,30.0,29.89,NW,308,7.0,9.0,94,0.00,,,0.00,weatherlink.com 1.10,2013-02-28 13:18:00,
2013-02-28 07:33:00,31.9,30.0,29.90,NW,318,4.0,8.0,94,0.00,,,0.00,weatherlink.com 1.10,2013-02-28 13:33:00,
2013-02-28 07:48:00,32.1,31.0,29.91,North,5,4.0,9.0,94,0.00,,,0.00,weatherlink.com 1.10,2013-02-28 13:48:00,
2013-02-28 08:03:00,32.2,31.0,29.91,NW,306,5.0,12.0,94,0.00,,,0.00,weatherlink.com 1.10,2013-02-28 14:03:00,
2013-02-28 08:18:00,32.3,31.0,29.92,NW,309,4.0,10.0,94,0.00,,,0.00,weatherlink.com 1.10,2013-02-28 14:18:00,
2013-02-28 08:33:00,32.4,31.0,29.92,NNW,346,2.0,13.0,94,0.00,,,0.00,weatherlink.com 1.10,2013-02-28 14:33:00,
2013-02-28 08:48:00,32.5,31.0,29.92,NW,317,6.0,11.0,93,0.00,,,0.00,weatherlink.com 1.10,2013-02-28 14:48:00,
2013-02-28 09:03:00,32.6,31.0,29.93,North,350,9.0,12.0,93,0.00,,,0.00,weatherlink.com 1.10,2013-02-28 15:03:00,
2013-02-28 09:18:00,32.7,31.0,29.94,NNW,348,5.0,14.0,93,0.00,,,0.00,weatherlink.com 1.10,2013-02-28 15:18:00,
2013-02-28 09:33:00,32.9,31.0,29.94,NNW,327,6.0,16.0,93,0.01,,,0.01,weatherlink.com 1.10,2013-02-28 15:33:00,
2013-02-28 09:48:00,33.2,31.0,29.94,NW,316,7.0,14.0,93,0.02,,,0.02,weatherlink.com 1.10,2013-02-28 15:48:00,
2013-02-28 10:03:00,33.2,31.0,29.94,NW,311,4.0,16.0,93,0.02,,,0.02,weatherlink.com 1.10,2013-02-28 16:03:00,
2013-02-28 10:18:00,33.5,32.0,29.95,NW,318,10.0,16.0,92,0.03,,,0.03,weatherlink.com 1.10,2013-02-28 16:18:00,
2013-02-28 10:33:00,33.6,32.0,29.95,NW,324,5.0,17.0,92,0.03,,,0.04,weatherlink.com 1.10,2013-02-28 16:33:00,
2013-02-28 10:48:00,33.6,32.0,29.96,NNW,339,11.0,15.0,92,0.02,,,0.04,weatherlink.com 1.10,2013-02-28 16:48:00,
2013-02-28 11:03:00,33.7,31.0,29.96,NNW,337,5.0,16.0,91,0.02,,,0.04,weatherlink.com 1.10,2013-02-28 17:03:00,
2013-02-28 11:18:00,33.9,32.0,29.96,NNW,341,10.0,14.0,91,0.01,,,0.04,weatherlink.com 1.10,2013-02-28 17:18:00,
2013-02-28 11:33:00,34.2,32.0,29.96,NW,309,8.0,14.0,90,0.00,,,0.04,weatherlink.com 1.10,2013-02-28 17:33:00,
2013-02-28 11:48:00,34.4,32.0,29.96,NW,316,9.0,14.0,90,0.00,,,0.04,weatherlink.com 1.10,2013-02-28 17:48:00,
2013-02-28 12:03:00,34.6,32.0,29.97,North,9,3.0,14.0,89,0.00,,,0.04,weatherlink.com 1.10,2013-02-28 18:03:00,
2013-02-28 12:18:00,35.1,32.0,29.97,NNW,342,9.0,14.0,88,0.00,,,0.04,weatherlink.com 1.10,2013-02-28 18:18:00,
2013-02-28 12:33:00,34.9,32.0,29.97,NNW,340,5.0,13.0,88,0.00,,,0.04,weatherlink.com 1.10,2013-02-28 18:33:00,
2013-02-28 13:03:00,34.7,32.0,29.97,NNW,344,6.0,16.0,88,0.00,,,0.04,weatherlink.com 1.10,2013-02-28 19:03:00,
2013-02-28 13:18:00,34.6,31.0,29.97,NNW,327,7.0,17.0,87,0.00,,,0.04,weatherlink.com 1.10,2013-02-28 19:18:00,
2013-02-28 13:33:00,34.8,31.0,29.98,NNW,344,10.0,15.0,87,0.00,,,0.04,weatherlink.com 1.10,2013-02-28 19:33:00,
2013-02-28 13:48:00,34.6,31.0,29.98,NW,326,7.0,14.0,87,0.00,,,0.04,weatherlink.com 1.10,2013-02-28 19:48:00,
2013-02-28 14:03:00,34.6,31.0,29.98,NW,318,4.0,15.0,87,0.00,,,0.04,weatherlink.com 1.10,2013-02-28 20:03:00,
2013-02-28 14:18:00,34.8,32.0,29.99,North,355,9.0,13.0,88,0.00,,,0.04,weatherlink.com 1.10,2013-02-28 20:18:00,
2013-02-28 14:33:00,34.8,32.0,29.99,NNW,335,6.0,14.0,88,0.00,,,0.04,weatherlink.com 1.10,2013-02-28 20:33:00,
2013-02-28 14:48:00,34.9,31.0,29.99,NW,319,10.0,15.0,87,0.00,,,0.04,weatherlink.com 1.10,2013-02-28 20:48:00,
2013-02-28 15:03:00,34.9,31.0,30.00,NW,326,12.0,13.0,87,0.00,,,0.04,weatherlink.com 1.10,2013-02-28 21:03:00,
2013-02-28 15:18:00,35.0,31.0,30.00,North,5,6.0,13.0,86,0.00,,,0.04,weatherlink.com 1.10,2013-02-28 21:18:00,
2013-02-28 15:33:00,34.6,31.0,30.01,North,355,7.0,17.0,87,0.00,,,0.04,weatherlink.com 1.10,2013-02-28 21:33:00,
2013-02-28 15:48:00,34.6,31.0,30.01,NNW,327,3.0,15.0,87,0.00,,,0.04,weatherlink.com 1.10,2013-02-28 21:48:00,
2013-02-28 16:03:00,34.4,31.0,30.02,NW,315,6.0,12.0,87,0.00,,,0.04,weatherlink.com 1.10,2013-02-28 22:03:00,
2013-02-28 16:18:00,34.2,31.0,30.02,NNE,19,8.0,9.0,88,0.00,,,0.04,weatherlink.com 1.10,2013-02-28 22:18:00,
2013-02-28 16:33:00,34.3,31.0,30.03,NNE,15,4.0,12.0,87,0.00,,,0.04,weatherlink.com 1.10,2013-02-28 22:33:00,
2013-02-28 16:48:00,33.7,31.0,30.03,NNW,344,9.0,12.0,89,0.00,,,0.04,weatherlink.com 1.10,2013-02-28 22:48:00,
2013-02-28 17:04:00,33.3,31.0,30.03,NW,323,6.0,13.0,91,0.00,,,0.04,weatherlink.com 1.10,2013-02-28 23:04:00,
2013-02-28 17:19:00,33.0,31.0,30.04,NNW,338,11.0,12.0,92,0.00,,,0.04,weatherlink.com 1.10,2013-02-28 23:19:00,
2013-02-28 17:34:00,33.0,31.0,30.04,NNW,329,4.0,10.0,92,0.00,,,0.04,weatherlink.com 1.10,2013-02-28 23:34:00,
2013-02-28 17:49:00,32.8,31.0,30.05,NNW,333,7.0,11.0,92,0.00,,,0.04,weatherlink.com 1.10,2013-02-28 23:49:00,
2013-02-28 18:04:00,32.7,31.0,30.05,NNW,338,4.0,10.0,92,0.00,,,0.04,weatherlink.com 1.10,2013-03-01 00:04:00,
2013-02-28 18:19:00,32.6,31.0,30.05,NNW,338,7.0,9.0,92,0.00,,,0.04,weatherlink.com 1.10,2013-03-01 00:19:00,
2013-02-28 18:34:00,32.6,31.0,30.06,NW,306,6.0,9.0,92,0.00,,,0.04,weatherlink.com 1.10,2013-03-01 00:34:00,
2013-02-28 18:49:00,32.6,31.0,30.06,NNW,344,7.0,8.0,92,0.00,,,0.04,weatherlink.com 1.10,2013-03-01 00:49:00,
2013-02-28 19:19:00,32.4,31.0,30.06,NNW,340,6.0,9.0,93,0.00,,,0.04,weatherlink.com 1.10,2013-03-01 01:19:00,
2013-02-28 19:34:00,32.2,30.0,30.06,NW,319,4.0,9.0,93,0.00,,,0.04,weatherlink.com 1.10,2013-03-01 01:34:00,
2013-02-28 19:49:00,32.1,30.0,30.06,NW,321,5.0,7.0,93,0.00,,,0.04,weatherlink.com 1.10,2013-03-01 01:49:00,
2013-02-28 20:04:00,32.0,30.0,30.06,North,350,1.0,6.0,93,0.00,,,0.04,weatherlink.com 1.10,2013-03-01 02:04:00,
2013-02-28 20:19:00,31.9,30.0,30.06,NW,311,6.0,9.0,93,0.00,,,0.04,weatherlink.com 1.10,2013-03-01 02:19:00,
2013-02-28 20:34:00,31.8,30.0,30.06,NNW,334,3.0,7.0,92,0.00,,,0.04,weatherlink.com 1.10,2013-03-01 02:34:00,
2013-02-28 20:49:00,31.8,30.0,30.07,NNW,337,4.0,5.0,92,0.00,,,0.04,weatherlink.com 1.10,2013-03-01 02:49:00,
2013-02-28 21:04:00,31.7,30.0,30.07,NW,321,3.0,7.0,92,0.00,,,0.04,weatherlink.com 1.10,2013-03-01 03:04:00,
2013-02-28 21:19:00,31.8,30.0,30.07,North,355,4.0,9.0,91,0.00,,,0.04,weatherlink.com 1.10,2013-03-01 03:19:00,
2013-02-28 21:49:00,31.6,29.0,30.07,NNW,341,8.0,11.0,90,0.00,,,0.04,weatherlink.com 1.10,2013-03-01 03:49:00,
2013-02-28 22:04:00,31.0,29.0,30.07,North,360,7.0,12.0,92,0.00,,,0.04,weatherlink.com 1.10,2013-03-01 04:04:00,
2013-02-28 22:19:00,30.8,29.0,30.07,NNW,348,4.0,10.0,93,0.00,,,0.04,weatherlink.com 1.10,2013-03-01 04:19:00,
2013-02-28 22:34:00,30.8,29.0,30.07,North,5,5.0,10.0,94,0.00,,,0.04,weatherlink.com 1.10,2013-03-01 04:34:00,
2013-02-28 22:49:00,30.8,30.0,30.07,North,355,7.0,9.0,95,0.00,,,0.04,weatherlink.com 1.10,2013-03-01 04:49:00,
2013-02-28 23:04:00,30.7,30.0,30.08,North,5,5.0,9.0,95,0.00,,,0.00,weatherlink.com 1.10,2013-03-01 05:04:00,
2013-02-28 23:19:00,30.5,29.0,30.07,NNW,348,6.0,8.0,95,0.00,,,0.00,weatherlink.com 1.10,2013-03-01 05:19:00,
2013-02-28 23:34:00,30.5,29.0,30.08,NNE,30,3.0,10.0,95,0.00,,,0.00,weatherlink.com 1.10,2013-03-01 05:34:00,
2013-02-28 23:49:00,29.9,29.0,30.07,NNE,27,4.0,9.0,95,0.00,,,0.00,weatherlink.com 1.10,2013-03-01 05:49:00,